Regional Weather Roundup
Issued by NWS

Home | Current Version | Previous Version | Graphics & Text | Print | Product List | Glossary On
Versions: 1 2 3 4 5 6 7 8 9 10 11 12 13 14 15 16 17 18 19 20 21 22 23 24 25 26 27 28 29 30 31 32 33 34 35 36 37 38 39 40 41 42 43 44 45 46 47 48 49 50
950
ASUS43 KFSD 232210
RWRSD

WEATHER ROUNDUP FOR SOUTH DAKOTA
NATIONAL WEATHER SERVICE SIOUX FALLS SD
500 PM CDT TUE MAY 23 2017

NOTE: "FAIR" INDICATES FEW OR NO CLOUDS BELOW 12,000 FEET WITH NO
SIGNIFICANT WEATHER AND/OR OBSTRUCTIONS TO VISIBILITY.


SDZ001>005-009-010-012>017-232300-
NORTHWEST AND NORTH CENTRAL SOUTH DAKOTA

CITY           SKY/WX    TMP DP  RH WIND       PRES   REMARKS
BUFFALO          N/A     65  32  29 NW7G17    30.00F
FAITH            N/A     62  36  37 N18G26    30.03F
MOBRIDGE       CLOUDY    62  37  39 N16G23    29.99F
$$

SDZ012>016-024>037-041>051-057-063-072>074-232300-
SOUTHWEST AND SOUTH CENTRAL SOUTH DAKOTA

CITY           SKY/WX    TMP DP  RH WIND       PRES   REMARKS
RAPID CTY ARPT MOSUNNY   64  34  32 N22G29    30.05F
PIERRE         LGT RAIN  54  39  57 N20       30.00F
CUSTER         MOSUNNY   55  28  35 N12G20    30.10F
ELLSWORTH AFB  MOSUNNY   64  32  29 N16G26    30.05
PHILIP         CLOUDY    62  36  37 N20G29    30.03S
PINE RIDGE     PTSUNNY   60  37  42 NE21      30.06F
SPEARFISH      FAIR      61  36  39 N10G17    30.09F
WINNER         CLOUDY    57  42  57 N22G28    29.98F
$$

SDZ004>011-016>023-039-040-232300-
NORTHEAST SOUTH DAKOTA

CITY           SKY/WX    TMP DP  RH WIND       PRES   REMARKS
ABERDEEN       CLOUDY    56  41  57 N18G24    29.96F
WATERTOWN      CLOUDY    52  46  80 N22       29.89F
BROOKINGS      LGT RAIN  48  45  87 N14G22    29.88R
SISSETON         N/A     55  49  80 N23       29.91S
$$

SDZ017-020-022-023-036>040-048>070-232300-
SOUTHEAST SOUTH DAKOTA

CITY           SKY/WX    TMP DP  RH WIND       PRES   REMARKS
SIOUX FALLS    CLOUDY    57  47  69 N17G28    29.84F
HURON          CLOUDY    53  45  74 N15G24    29.94S
CHAMBERLAIN    CLOUDY    56  44  64 NW13G20   29.98S
MITCHELL       CLOUDY    54  44  69 N17       29.93S
YANKTON        PTSUNNY   51  48  89 NW14      29.88F
$$

ABBREVIATIONS USED IN REMARKS
   TC - TEMPERATURE IN CELSIUS
  WCI - WIND CHILL INDEX
   HX - HEAT INDEX
  VSB - VISIBILITY





USA.gov is the U.S. government's official web portal to all federal, state and local government web resources and services.